Weather Roundup
Issued by NWS Chicago, IL

Home | Current Version | Previous Version | Graphics & Text | Print | Product List | Glossary On
Versions: 1 2 3 4 5 6 7 8 9 10 11 12 13 14 15 16 17 18 19 20 21 22 23 24 25 26 27 28 29 30 31 32 33 34 35 36 37 38 39 40 41 42 43 44 45 46 47 48 49 50
000
NZUS59 KLOT 232310
HRRLOT

CHICAGO AREA WEATHER ROUNDUP
NATIONAL WEATHER SERVICE CHICAGO/ROMEOVILLE IL
600 PM CDT WED JUL 23 2014

NOTE: "FAIR" INDICATES FEW OR NO CLOUDS BELOW 12,000 FEET WITH NO
SIGNIFICANT WEATHER AND/OR OBSTRUCTIONS TO VISIBILITY.

* THESE STATIONS ARE NOT UNDER NWS QUALITY CONTROL. THEY ALSO MAY NOT
  REPORT WEATHER SUCH AS PRECIPITATION OR FOG.

ILZ005-006-012>014-019>023-240000-
NORTHEAST ILLINOIS

CITY           SKY/WX    TMP DP  RH WIND       PRES   REMARKS
OHARE          MOSUNNY   68  51  54 NE18G29   30.15R
MIDWAY         MOSUNNY   69  54  58 NE21      30.14R
AURORA         MOSUNNY   73  55  53 NE13      30.12R
LANSING*       SUNNY     66  52  60 N18G25    30.14R
JOLIET*        SUNNY     72  52  49 NE12G21   30.13R
WAUKEGAN       SUNNY     64  51  62 N15G25    30.15S
DUPAGE AIRPORT MOSUNNY   72  56  57 NE13      30.13R
WHEELING       SUNNY     67  54  63 NE18G24   30.17R
KANKAKEE*      SUNNY     70  53  54 NE13G21   30.12S
MORRIS*        PTSUNNY   74  54  49 NE5       30.11S
LEWIS AIRPORT* SUNNY     71  51  50 NE18G24   30.12S
NORTHERLY IS     N/A     64  55  72 N14         N/A
$$

WIZ051-052-058>065-066-070>072-240000-
SOUTHEAST WISCONSIN

CITY           SKY/WX    TMP DP  RH WIND       PRES   REMARKS
MILWAUKEE      MOSUNNY   63  52  67 NE13G20   30.17F
KENOSHA*       SUNNY     66  52  60 NE9G22    30.17R
RACINE*        SUNNY     65  53  65 N18       30.18S
BURLINGTON     SUNNY     66  53  61 NE9       30.16S
WAUKESHA       MOSUNNY   66  52  59 NE12      30.18S
WEST BEND      MOSUNNY   64  50  59 E8        30.17S
$$

INZ001>003-010>013-019-020-240000-
NORTHWEST INDIANA

CITY           SKY/WX    TMP DP  RH WIND       PRES   REMARKS
GARY*          SUNNY     68  54  60 N18       30.14R
MICHIGAN CITY* NOT AVBL
RENSSELAER*    NOT AVBL
VALPARAISO     SUNNY     67  49  52 N12G23    30.11S
$$

LMZ740>746-240000-
SOUTHERN LAKE MICHIGAN

STATION/POSITION TIME  SKY/WX   TEMP WIND        PRES    VSBY
                                AIR  DIR/SP/G
                 (UTC)          (F)  (DEG/KT/KT) (MB)    (MI)
HARRISON CRIB    2300            61  360/ 22/ 25   N/A
BURNHAM HARBOR   2300            63  350/ 11/ 18   N/A
CALUMET HARBOR   2300            64  350/ 12/ 18 1019.6S
BURNS HARBOR     NOT AVBL
MICHIGAN CITY    2300            65  350/ 27/ 32   N/A
$$

ABBREVIATIONS USED IN REMARKS
   TC - TEMPERATURE IN CELSIUS
  WCI - WIND CHILL INDEX
   HX - HEAT INDEX
  VSB - VISIBILITY
$$



USA.gov is the U.S. government's official web portal to all federal, state and local government web resources and services.